| time (UTC) | temp F | wind direction | speed knots | gust knots | rain 1hr in | rain 24hr in | rain mn in | humidity % | barometer mb |
| 20260507081738 | 54 | 311 | 1.7 | 2.6 | 0.28 | 0.13 | 0.13 | 93 | 1006.9 |
| 20260507081234 | 54 | 0 | 0.0 | 3.5 | 0.12 | 0.09 | 0.09 | 93 | 1006.5 |
| 20260507080731 | 54 | 283 | 1.7 | 2.6 | 0.19 | 0.08 | 0.08 | 93 | 1006.5 |
| 20260507080227 | 55 | 289 | 1.7 | 3.5 | 0.26 | 0.07 | 0.07 | 92 | 1006.7 |
| 20260507075722 | 55 | 0 | 4.3 | 5.2 | 0.31 | 0.05 | 0.05 | 92 | 1006.7 |
| 20260507075219 | 54 | 270 | 2.6 | 7.8 | 0.19 | 0.03 | 0.03 | 92 | 1006.5 |
| 20260507074715 | 55 | 8 | 4.3 | 7.0 | 0.00 | 0.00 | 0.00 | 93 | 1006.2 |
| 20260507074214 | 54 | 309 | 1.7 | 2.6 | 0.00 | 0.00 | 0.00 | 93 | 1005.5 |
| 20260507073710 | 54 | 352 | 0.0 | 1.7 | 0.00 | 0.00 | 0.00 | 93 | 1005.7 |
| 20260507073206 | 54 | 75 | 1.7 | 5.2 | 0.00 | 0.00 | 0.00 | 93 | 1005.7 |
| 20260507072704 | 57 | 82 | 0.0 | 1.7 | 0.00 | 0.00 | 0.00 | 93 | 1005.4 |
| 20260507072201 | 57 | 261 | 0.0 | 0.9 | 0.00 | 0.00 | 0.00 | 93 | 1005.8 |
| 20260507071659 | 57 | 270 | 0.0 | 1.7 | 0.00 | 0.00 | 0.00 | 93 | 1005.7 |
| 20260507071155 | 57 | 286 | 0.0 | 0.9 | 0.00 | 0.00 | 0.00 | 93 | 1005.9 |
| 20260507070652 | 57 | 251 | 0.0 | 1.7 | 0.00 | 0.00 | 0.00 | 93 | 1005.9 |
| 20260507070149 | 57 | 286 | 0.0 | 0.0 | 0.00 | 0.00 | 0.00 | 93 | 1005.6 |
| 20260507065645 | 57 | 209 | 0.0 | 0.9 | 0.00 | 0.00 | 0.00 | 93 | 1005.7 |
| 20260507065142 | 57 | 8 | 0.0 | 1.7 | 0.00 | 0.00 | 0.00 | 93 | 1005.6 |
| 20260507064640 | 57 | 277 | 0.0 | 2.6 | 0.00 | 0.00 | 0.00 | 93 | 1005.6 |
| 20260507064138 | 57 | 215 | 0.9 | 2.6 | 0.00 | 0.00 | 0.00 | 93 | 1005.3 |
| 20260507063636 | 57 | 285 | 0.0 | 2.6 | 0.00 | 0.00 | 0.00 | 93 | 1005.4 |
| 20260507063132 | 57 | 240 | 0.9 | 7.0 | 0.00 | 0.00 | 0.00 | 93 | 1005.4 |
| 20260507062629 | 57 | 275 | 1.7 | 3.5 | 0.00 | 0.00 | 0.00 | 93 | 1005.7 |
| 20260507062127 | 57 | 237 | 2.6 | 5.2 | 0.00 | 0.00 | 0.00 | 93 | 1005.9 |
| 20260507061624 | 57 | 270 | 0.9 | 3.5 | 0.00 | 0.00 | 0.00 | 93 | 1005.9 |
| 20260507061122 | 57 | 240 | 0.0 | 4.3 | 0.00 | 0.00 | 0.00 | 93 | 1005.8 |
| 20260507060620 | 57 | 239 | 2.6 | 2.6 | 0.00 | 0.00 | 0.00 | 93 | 1005.9 |
| 20260507060116 | 57 | 195 | 3.5 | 6.1 | 0.00 | 0.00 | 0.00 | 93 | 1006.3 |
| 20260507055612 | 57 | 192 | 1.7 | 4.3 | 0.00 | 0.00 | 0.00 | 93 | 1006.1 |
| 20260507055108 | 57 | 195 | 1.7 | 5.2 | 0.00 | 0.00 | 0.00 | 93 | 1006.1 |
| 20260507054604 | 57 | 277 | 0.9 | 4.3 | 0.00 | 0.00 | 0.00 | 93 | 1006.1 |
| 20260507054101 | 57 | 213 | 1.7 | 6.1 | 0.00 | 0.00 | 0.00 | 93 | 1006.2 |
| 20260507053559 | 57 | 276 | 3.5 | 5.2 | 0.00 | 0.00 | 0.00 | 93 | 1006.3 |
| 20260507053058 | 57 | 215 | 2.6 | 8.7 | 0.00 | 0.00 | 0.00 | 93 | 1006.1 |
| 20260507052555 | 57 | 254 | 1.7 | 5.2 | 0.00 | 0.00 | 0.00 | 93 | 1006.0 |
| 20260507052051 | 57 | 341 | 3.5 | 6.1 | 0.00 | 0.00 | 0.00 | 93 | 1006.1 |
| 20260507051549 | 57 | 264 | 1.7 | 4.3 | 0.00 | 0.00 | 0.00 | 93 | 1006.4 |
| 20260507051046 | 57 | 205 | 5.2 | 5.2 | 0.00 | 0.00 | 0.00 | 93 | 1006.5 |
| 20260507050542 | 57 | 201 | 2.6 | 5.2 | 0.00 | 0.00 | 0.00 | 93 | 1006.5 |
| 20260507050039 | 57 | 239 | 1.7 | 3.5 | 0.00 | 0.00 | 0.00 | 93 | 1006.3 |
| 20260507045535 | 57 | 201 | 2.6 | 5.2 | 0.00 | 0.00 | 0.00 | 93 | 1006.4 |
| 20260507045033 | 57 | 209 | 0.9 | 7.0 | 0.00 | 0.00 | 0.00 | 93 | 1006.2 |
| 20260507044529 | 57 | 251 | 4.3 | 4.3 | 0.00 | 0.00 | 0.00 | 93 | 1006.2 |
| 20260507044026 | 57 | 248 | 1.7 | 4.3 | 0.00 | 0.00 | 0.00 | 93 | 1006.2 |
| 20260507043522 | 57 | 270 | 0.9 | 5.2 | 0.00 | 0.00 | 0.00 | 93 | 1006.3 |
| 20260507043020 | 57 | 249 | 2.6 | 7.8 | 0.00 | 0.00 | 0.00 | 93 | 1006.0 |
| 20260507042515 | 57 | 213 | 0.0 | 7.0 | 0.00 | 0.00 | 0.00 | 93 | 1006.2 |
| 20260507042011 | 57 | 216 | 4.3 | 9.6 | 0.00 | 0.00 | 0.00 | 93 | 1006.1 |
| 20260507041508 | 57 | 206 | 3.5 | 3.5 | 0.00 | 0.00 | 0.00 | 93 | 1006.2 |
| 20260507041005 | 57 | 230 | 1.7 | 7.8 | 0.00 | 0.00 | 0.00 | 93 | 1006.1 |
| 20260507040501 | 57 | 243 | 2.6 | 11.3 | 0.00 | 0.00 | 0.00 | 93 | 1006.1 |
| 20260507035956 | 57 | 235 | 2.6 | 7.0 | 0.00 | 0.10 | 0.10 | 93 | 1006.4 |
| 20260507035454 | 57 | 279 | 3.5 | 8.7 | 0.00 | 0.10 | 0.10 | 93 | 1006.4 |
| 20260507034950 | 57 | 270 | 0.0 | 6.1 | 0.00 | 0.10 | 0.10 | 93 | 1006.6 |
| 20260507034447 | 57 | 195 | 3.5 | 7.8 | 0.00 | 0.10 | 0.10 | 93 | 1006.7 |
| 20260507033945 | 57 | 238 | 7.8 | 7.8 | 0.00 | 0.10 | 0.10 | 93 | 1006.4 |
| 20260507033443 | 57 | 239 | 1.7 | 13.0 | 0.00 | 0.10 | 0.10 | 93 | 1006.4 |
| 20260507032940 | 57 | 234 | 5.2 | 7.8 | 0.00 | 0.10 | 0.10 | 93 | 1006.1 |
| 20260507032437 | 57 | 202 | 4.3 | 12.2 | 0.00 | 0.10 | 0.10 | 93 | 1006.4 |
| 20260507031932 | 57 | 225 | 3.5 | 10.4 | 0.00 | 0.10 | 0.10 | 93 | 1006.0 |
| 20260507031429 | 57 | 227 | 5.2 | 7.8 | 0.00 | 0.10 | 0.10 | 93 | 1006.0 |
| 20260507030926 | 57 | 230 | 1.7 | 6.1 | 0.00 | 0.10 | 0.10 | 93 | 1005.9 |
| 20260507030423 | 57 | 252 | 1.7 | 7.8 | 0.00 | 0.10 | 0.10 | 93 | 1006.2 |
| 20260507025920 | 57 | 253 | 4.3 | 8.7 | 0.00 | 0.10 | 0.10 | 94 | 1005.9 |
| 20260507025418 | 57 | 214 | 5.2 | 8.7 | 0.00 | 0.10 | 0.10 | 94 | 1005.9 |
| 20260507024915 | 57 | 270 | 2.6 | 7.8 | 0.00 | 0.10 | 0.10 | 94 | 1005.6 |
| 20260507024413 | 57 | 230 | 6.1 | 13.9 | 0.00 | 0.10 | 0.10 | 94 | 1005.8 |
| 20260507023908 | 57 | 180 | 0.9 | 11.3 | 0.00 | 0.10 | 0.10 | 94 | 1005.9 |
| 20260507023405 | 57 | 237 | 4.3 | 9.6 | 0.00 | 0.10 | 0.10 | 94 | 1006.0 |
| 20260507022903 | 57 | 171 | 2.6 | 5.2 | 0.00 | 0.10 | 0.10 | 94 | 1005.9 |
| 20260507022359 | 57 | 202 | 3.5 | 7.8 | 0.00 | 0.10 | 0.10 | 94 | 1005.8 |
| 20260507021855 | 57 | 254 | 1.7 | 5.2 | 0.00 | 0.10 | 0.10 | 94 | 1006.0 |
| 20260507021350 | 57 | 270 | 2.6 | 12.2 | 0.00 | 0.10 | 0.10 | 94 | 1006.2 |
| 20260507020849 | 57 | 270 | 0.0 | 6.1 | 0.00 | 0.10 | 0.10 | 94 | 1006.1 |
| 20260507020345 | 57 | 226 | 3.5 | 11.3 | 0.00 | 0.10 | 0.10 | 94 | 1006.4 |
| 20260507015842 | 57 | 206 | 3.5 | 5.2 | 0.00 | 0.10 | 0.10 | 94 | 1006.5 |
| 20260507015340 | 57 | 210 | 1.7 | 8.7 | 0.00 | 0.10 | 0.10 | 94 | 1006.3 |
| 20260507014837 | 57 | 243 | 2.6 | 7.8 | 0.00 | 0.10 | 0.10 | 94 | 1006.7 |
| 20260507014333 | 57 | 256 | 2.6 | 5.2 | 0.00 | 0.10 | 0.10 | 94 | 1006.3 |
| 20260507013829 | 57 | 235 | 1.7 | 5.2 | 0.00 | 0.10 | 0.10 | 94 | 1006.5 |
| 20260507013326 | 57 | 219 | 0.0 | 4.3 | 0.00 | 0.10 | 0.10 | 94 | 1006.6 |
| 20260507012824 | 57 | 228 | 4.3 | 9.6 | 0.00 | 0.10 | 0.10 | 94 | 1006.9 |
| 20260507012320 | 57 | 210 | 2.6 | 7.8 | 0.00 | 0.10 | 0.10 | 94 | 1006.4 |
| 20260507011817 | 57 | 243 | 1.7 | 7.8 | 0.00 | 0.10 | 0.10 | 94 | 1006.6 |
| 20260507011314 | 57 | 197 | 4.3 | 13.0 | 0.00 | 0.10 | 0.10 | 94 | 1006.7 |
| 20260507010814 | 57 | 202 | 4.3 | 7.8 | 0.00 | 0.10 | 0.10 | 94 | 1006.4 |
| 20260507010309 | 57 | 236 | 1.7 | 6.1 | 0.00 | 0.10 | 0.10 | 94 | 1006.6 |
| 20260507005807 | 57 | 254 | 0.9 | 7.0 | 0.00 | 0.10 | 0.10 | 94 | 1006.5 |
| 20260507005305 | 57 | 194 | 3.5 | 11.3 | 0.00 | 0.10 | 0.10 | 94 | 1006.6 |
| 20260507004800 | 57 | 204 | 4.3 | 6.1 | 0.00 | 0.10 | 0.10 | 94 | 1006.7 |
| 20260507004258 | 57 | 241 | 3.5 | 11.3 | 0.00 | 0.10 | 0.10 | 94 | 1006.7 |
| 20260507003754 | 57 | 237 | 8.7 | 12.2 | 0.00 | 0.10 | 0.10 | 94 | 1006.6 |
| 20260507003249 | 57 | 160 | 0.0 | 12.2 | 0.02 | 0.10 | 0.10 | 94 | 1007.0 |
| 20260507002745 | 57 | 206 | 3.5 | 12.2 | 0.02 | 0.10 | 0.10 | 94 | 1006.6 |
| 20260507002241 | 57 | 233 | 7.8 | 11.3 | 0.07 | 0.10 | 0.10 | 94 | 1006.5 |
| 20260507001738 | 57 | 231 | 2.6 | 9.6 | 0.12 | 0.10 | 0.10 | 94 | 1006.4 |
| 20260507001236 | 58 | 202 | 5.2 | 12.2 | 0.05 | 0.09 | 0.09 | 94 | 1006.6 |
| 20260507000732 | 57 | 195 | 1.7 | 8.7 | 0.00 | 0.08 | 0.08 | 94 | 1006.7 |
| 20260507000228 | 57 | 195 | 3.5 | 3.5 | 0.00 | 0.08 | 0.08 | 94 | 1006.6 |
| 20260506235725 | 57 | 212 | 2.6 | 7.0 | 0.02 | 0.08 | 0.08 | 93 | 1006.6 |
| 20260506235220 | 57 | 180 | 0.9 | 5.2 | 0.05 | 0.08 | 0.08 | 93 | 1006.7 |
| 20260506234717 | 57 | 219 | 1.7 | 5.2 | 0.02 | 0.07 | 0.07 | 93 | 1006.6 |
| 20260506234215 | 57 | 183 | 2.6 | 4.3 | 0.00 | 0.07 | 0.07 | 93 | 1006.9 |
| 20260506233712 | 57 | 227 | 2.6 | 8.7 | 0.02 | 0.07 | 0.07 | 93 | 1007.0 |
| 20260506233208 | 58 | 219 | 1.7 | 8.7 | 0.05 | 0.07 | 0.07 | 93 | 1006.6 |
| 20260506232705 | 58 | 285 | 0.0 | 7.8 | 0.12 | 0.07 | 0.07 | 93 | 1007.0 |
| 20260506232200 | 58 | 290 | 1.7 | 9.6 | 0.12 | 0.06 | 0.06 | 92 | 1006.8 |
| 20260506231658 | 58 | 274 | 2.6 | 3.5 | 0.05 | 0.05 | 0.05 | 92 | 1006.8 |
| 20260506231156 | 58 | 213 | 3.5 | 6.1 | 0.02 | 0.04 | 0.04 | 92 | 1006.6 |
| 20260506230652 | 58 | 320 | 2.6 | 4.3 | 0.00 | 0.04 | 0.04 | 92 | 1006.8 |
| 20260506230149 | 58 | 184 | 5.2 | 7.8 | 0.00 | 0.04 | 0.04 | 91 | 1006.7 |
| 20260506225646 | 59 | 210 | 4.3 | 9.6 | 0.02 | 0.04 | 0.04 | 91 | 1006.9 |
| 20260506225143 | 59 | 180 | 2.6 | 6.1 | 0.02 | 0.04 | 0.04 | 91 | 1006.8 |
| 20260506224639 | 59 | 180 | 0.0 | 7.8 | 0.02 | 0.04 | 0.04 | 91 | 1007.1 |
| 20260506224136 | 59 | 177 | 2.6 | 5.2 | 0.02 | 0.04 | 0.04 | 90 | 1006.9 |
| 20260506223632 | 59 | 159 | 3.5 | 7.8 | 0.00 | 0.03 | 0.03 | 90 | 1007.3 |
| 20260506223128 | 59 | 180 | 3.5 | 8.7 | 0.02 | 0.03 | 0.03 | 90 | 1007.2 |
| 20260506222625 | 60 | 180 | 2.6 | 9.6 | 0.00 | 0.03 | 0.03 | 90 | 1007.1 |
| 20260506222121 | 60 | 286 | 0.0 | 5.2 | 0.00 | 0.03 | 0.03 | 90 | 1007.2 |
| 20260506221619 | 60 | 199 | 1.7 | 7.0 | 0.00 | 0.03 | 0.03 | 89 | 1007.3 |
| 20260506221117 | 60 | 227 | 4.3 | 8.7 | 0.00 | 0.03 | 0.03 | 89 | 1007.1 |
| 20260506220613 | 60 | 244 | 3.5 | 5.2 | 0.00 | 0.03 | 0.03 | 89 | 1007.4 |
| 20260506220109 | 60 | 223 | 4.3 | 9.6 | 0.00 | 0.03 | 0.03 | 89 | 1007.3 |
| 20260506215606 | 61 | 132 | 3.5 | 7.8 | 0.00 | 0.03 | 0.03 | 89 | 1007.4 |
| 20260506215101 | 61 | 183 | 2.6 | 6.1 | 0.00 | 0.03 | 0.03 | 89 | 1007.2 |
| 20260506214558 | 61 | 205 | 2.6 | 10.4 | 0.05 | 0.03 | 0.03 | 88 | 1007.2 |
| 20260506214055 | 62 | 222 | 5.2 | 7.8 | 0.05 | 0.03 | 0.03 | 88 | 1007.2 |
| 20260506213553 | 62 | 207 | 2.6 | 8.7 | 0.00 | 0.02 | 0.02 | 87 | 1007.2 |
| 20260506213050 | 62 | 215 | 7.8 | 9.6 | 0.00 | 0.02 | 0.02 | 86 | 1007.4 |
| 20260506212547 | 62 | 212 | 2.6 | 9.6 | 0.00 | 0.02 | 0.02 | 86 | 1007.4 |
| 20260506212042 | 62 | 218 | 2.6 | 7.0 | 0.00 | 0.02 | 0.02 | 85 | 1007.6 |
| 20260506211538 | 62 | 195 | 3.5 | 11.3 | 0.00 | 0.02 | 0.02 | 85 | 1007.5 |
| 20260506211036 | 62 | 204 | 4.3 | 7.0 | 0.00 | 0.02 | 0.02 | 86 | 1007.7 |
| 20260506210532 | 62 | 229 | 5.2 | 10.4 | 0.00 | 0.02 | 0.02 | 86 | 1007.6 |
| 20260506210029 | 61 | 296 | 2.6 | 7.0 | 0.00 | 0.02 | 0.02 | 86 | 1007.7 |
| 20260506205526 | 61 | 210 | 4.3 | 12.2 | 0.00 | 0.02 | 0.02 | 86 | 1007.6 |
| 20260506205021 | 61 | 190 | 0.0 | 9.6 | 0.00 | 0.02 | 0.02 | 87 | 1007.5 |
| 20260506204519 | 61 | 243 | 8.7 | 8.7 | 0.00 | 0.02 | 0.02 | 87 | 1007.8 |
| 20260506204016 | 60 | 270 | 2.6 | 13.9 | 0.00 | 0.02 | 0.02 | 88 | 1007.7 |
| 20260506203514 | 60 | 230 | 6.1 | 13.9 | 0.00 | 0.02 | 0.02 | 89 | 1007.7 |
| 20260506203010 | 60 | 210 | 3.5 | 8.7 | 0.00 | 0.02 | 0.02 | 89 | 1007.8 |
| 20260506202508 | 60 | 216 | 5.2 | 10.4 | 0.02 | 0.02 | 0.02 | 89 | 1008.0 |
| 20260506202003 | 60 | 174 | 2.6 | 6.1 | 0.07 | 0.02 | 0.02 | 89 | 1007.9 |
| 20260506201502 | 60 | 200 | 4.3 | 7.0 | 0.07 | 0.02 | 0.02 | 88 | 1008.1 |
| 20260506200958 | 61 | 226 | 9.6 | 11.3 | 0.05 | 0.01 | 0.01 | 88 | 1008.0 |
| 20260506200454 | 61 | 231 | 3.5 | 16.5 | 0.02 | 0.00 | 0.00 | 87 | 1008.1 |
| 20260506195950 | 62 | 270 | 1.7 | 10.4 | 0.00 | 0.00 | 0.00 | 84 | 1008.1 |
| 20260506195448 | 64 | 227 | 6.1 | 6.1 | 0.00 | 0.00 | 0.00 | 80 | 1007.9 |
| 20260506194944 | 64 | 216 | 8.7 | 13.0 | 0.00 | 0.00 | 0.00 | 79 | 1008.2 |
| 20260506194442 | 64 | 266 | 7.0 | 10.4 | 0.00 | 0.00 | 0.00 | 78 | 1008.3 |
| 20260506193938 | 64 | 167 | 3.5 | 20.9 | 0.00 | 0.00 | 0.00 | 78 | 1008.2 |
| 20260506193436 | 64 | 184 | 5.2 | 18.2 | 0.00 | 0.00 | 0.00 | 77 | 1007.9 |
| 20260506192932 | 64 | 202 | 4.3 | 20.9 | 0.00 | 0.00 | 0.00 | 78 | 1008.2 |
| 20260506192429 | 65 | 180 | 5.2 | 19.1 | 0.00 | 0.00 | 0.00 | 77 | 1008.1 |
| 20260506191926 | 65 | 213 | 7.8 | 15.6 | 0.00 | 0.00 | 0.00 | 77 | 1008.3 |
| 20260506191422 | 65 | 180 | 1.7 | 13.9 | 0.00 | 0.00 | 0.00 | 77 | 1008.3 |
| 20260506190919 | 65 | 252 | 3.5 | 13.9 | 0.00 | 0.00 | 0.00 | 77 | 1007.9 |
| 20260506190416 | 65 | 182 | 3.5 | 10.4 | 0.00 | 0.00 | 0.00 | 77 | 1007.9 |
| 20260506185913 | 65 | 220 | 8.7 | 13.0 | 0.00 | 0.00 | 0.00 | 76 | 1008.0 |
| 20260506185410 | 65 | 228 | 1.7 | 14.8 | 0.00 | 0.00 | 0.00 | 77 | 1008.1 |
| 20260506184907 | 66 | 241 | 7.8 | 10.4 | 0.00 | 0.00 | 0.00 | 76 | 1008.2 |
| 20260506184404 | 66 | 308 | 1.7 | 21.7 | 0.00 | 0.00 | 0.00 | 76 | 1008.2 |
| 20260506183901 | 66 | 279 | 7.8 | 9.6 | 0.00 | 0.00 | 0.00 | 75 | 1008.3 |
| 20260506183356 | 66 | 205 | 9.6 | 27.8 | 0.00 | 0.00 | 0.00 | 75 | 1008.0 |
| 20260506182854 | 66 | 207 | 7.0 | 17.4 | 0.00 | 0.00 | 0.00 | 74 | 1008.2 |
| 20260506182351 | 67 | 188 | 1.7 | 8.7 | 0.00 | 0.00 | 0.00 | 74 | 1008.1 |
| 20260506181848 | 67 | 237 | 9.6 | 19.1 | 0.00 | 0.00 | 0.00 | 74 | 1008.5 |
| 20260506181346 | 67 | 239 | 1.7 | 13.9 | 0.00 | 0.00 | 0.00 | 73 | 1008.6 |
| 20260506180843 | 67 | 171 | 4.3 | 28.7 | 0.00 | 0.00 | 0.00 | 73 | 1008.6 |
| 20260506180339 | 68 | 198 | 1.7 | 17.4 | 0.00 | 0.00 | 0.00 | 71 | 1008.7 |
| 20260506175835 | 68 | 173 | 6.1 | 17.4 | 0.00 | 0.00 | 0.00 | 71 | 1008.8 |
| 20260506175332 | 68 | 206 | 4.3 | 20.9 | 0.00 | 0.00 | 0.00 | 70 | 1009.2 |
| 20260506174829 | 69 | 169 | 10.4 | 19.1 | 0.00 | 0.00 | 0.00 | 70 | 1009.1 |
| 20260506174327 | 69 | 210 | 5.2 | 8.7 | 0.00 | 0.00 | 0.00 | 69 | 1009.0 |
| 20260506173824 | 69 | 245 | 5.2 | 12.2 | 0.00 | 0.00 | 0.00 | 70 | 1008.8 |
| 20260506173321 | 69 | 152 | 2.6 | 12.2 | 0.00 | 0.00 | 0.00 | 71 | 1008.9 |
| 20260506172818 | 68 | 165 | 3.5 | 22.6 | 0.00 | 0.00 | 0.00 | 71 | 1009.1 |
| 20260506172314 | 69 | 194 | 6.1 | 19.1 | 0.00 | 0.00 | 0.00 | 70 | 1009.0 |
| 20260506171812 | 67 | 223 | 11.3 | 20.9 | 0.00 | 0.00 | 0.00 | 73 | 1008.9 |
| 20260506171309 | 67 | 292 | 1.7 | 10.4 | 0.00 | 0.00 | 0.00 | 73 | 1009.4 |
| 20260506170807 | 68 | 182 | 2.6 | 15.6 | 0.00 | 0.00 | 0.00 | 73 | 1009.2 |
| 20260506170302 | 67 | 166 | 5.2 | 17.4 | 0.00 | 0.00 | 0.00 | 73 | 1009.3 |
| 20260506165802 | 68 | 189 | 3.5 | 21.7 | 0.00 | 0.00 | 0.00 | 72 | 1009.5 |
| 20260506165258 | 69 | 248 | 1.7 | 7.8 | 0.00 | 0.00 | 0.00 | 69 | 1009.3 |
| 20260506164755 | 69 | 222 | 7.8 | 13.9 | 0.00 | 0.00 | 0.00 | 69 | 1009.5 |
| 20260506164252 | 69 | 270 | 1.7 | 10.4 | 0.00 | 0.00 | 0.00 | 69 | 1009.3 |
| 20260506163749 | 69 | 274 | 2.6 | 20.9 | 0.00 | 0.00 | 0.00 | 69 | 1009.3 |
| 20260506163243 | 68 | 233 | 11.3 | 17.4 | 0.00 | 0.00 | 0.00 | 69 | 1009.7 |
| 20260506162740 | 68 | 180 | 9.6 | 20.9 | 0.00 | 0.00 | 0.00 | 69 | 1009.6 |
| 20260506162238 | 69 | 265 | 3.5 | 17.4 | 0.00 | 0.00 | 0.00 | 68 | 1009.8 |
| 20260506161735 | 70 | 278 | 3.5 | 12.2 | 0.00 | 0.00 | 0.00 | 68 | 1009.7 |
| 20260506161232 | 70 | 17 | 4.3 | 14.8 | 0.00 | 0.00 | 0.00 | 68 | 1009.7 |
| 20260506160730 | 71 | 206 | 8.7 | 13.0 | 0.00 | 0.00 | 0.00 | 67 | 1009.9 |
| 20260506160226 | 71 | 239 | 7.0 | 9.6 | 0.00 | 0.00 | 0.00 | 66 | 1010.0 |
| 20260506155725 | 72 | 166 | 0.0 | 5.2 | 0.00 | 0.00 | 0.00 | 67 | 1010.1 |
| 20260506155221 | 71 | 259 | 1.7 | 11.3 | 0.00 | 0.00 | 0.00 | 68 | 1010.1 |
| 20260506153323 | 68 | 223 | 10.4 | 19.1 | 0.00 | 0.00 | 0.00 | 69 | 1010.2 |
| 20260506152820 | 68 | 63 | 3.5 | 21.7 | 0.00 | 0.00 | 0.00 | 69 | 1010.4 |
| 20260506152317 | 69 | 242 | 11.3 | 22.6 | 0.00 | 0.00 | 0.00 | 68 | 1010.5 |
| 20260506151816 | 69 | 171 | 4.3 | 7.8 | 0.00 | 0.00 | 0.00 | 69 | 1010.4 |
| 20260506151312 | 69 | 209 | 6.1 | 15.6 | 0.00 | 0.00 | 0.00 | 68 | 1010.5 |
| 20260506150809 | 69 | 237 | 5.2 | 7.0 | 0.00 | 0.00 | 0.00 | 69 | 1010.4 |
| 20260506150306 | 68 | 253 | 7.0 | 14.8 | 0.00 | 0.00 | 0.00 | 69 | 1010.2 |
| 20260506145803 | 69 | 182 | 3.5 | 10.4 | 0.00 | 0.00 | 0.00 | 68 | 1010.5 |
| 20260506145259 | 69 | 183 | 6.1 | 16.5 | 0.00 | 0.00 | 0.00 | 69 | 1010.2 |
| 20260506144757 | 69 | 160 | 3.5 | 16.5 | 0.00 | 0.00 | 0.00 | 69 | 1010.2 |
| 20260506144253 | 70 | 187 | 4.3 | 12.2 | 0.00 | 0.00 | 0.00 | 67 | 1010.4 |
| 20260506143751 | 70 | 181 | 4.3 | 8.7 | 0.00 | 0.00 | 0.00 | 66 | 1010.2 |
| 20260506143248 | 70 | 205 | 3.5 | 14.8 | 0.00 | 0.00 | 0.00 | 67 | 1010.1 |
| 20260506142747 | 69 | 203 | 7.0 | 11.3 | 0.00 | 0.00 | 0.00 | 67 | 1010.3 |
| 20260506142244 | 69 | 237 | 9.6 | 16.5 | 0.00 | 0.00 | 0.00 | 68 | 1010.1 |
| 20260506141742 | 69 | 190 | 5.2 | 12.2 | 0.00 | 0.00 | 0.00 | 67 | 1010.3 |
| 20260506141240 | 70 | 219 | 9.6 | 20.9 | 0.00 | 0.00 | 0.00 | 67 | 1010.0 |
| 20260506140738 | 70 | 159 | 8.7 | 9.6 | 0.00 | 0.00 | 0.00 | 67 | 1010.2 |
| 20260506140234 | 69 | 221 | 3.5 | 16.5 | 0.00 | 0.00 | 0.00 | 69 | 1010.5 |
| 20260506135731 | 69 | 180 | 2.6 | 11.3 | 0.00 | 0.00 | 0.00 | 70 | 1010.7 |
| 20260506135228 | 69 | 228 | 3.5 | 8.7 | 0.00 | 0.00 | 0.00 | 71 | 1010.7 |
| 20260506134725 | 68 | 184 | 3.5 | 11.3 | 0.00 | 0.00 | 0.00 | 72 | 1010.8 |
| 20260506134221 | 68 | 318 | 2.6 | 6.1 | 0.00 | 0.00 | 0.00 | 73 | 1010.9 |
| 20260506133718 | 68 | 203 | 0.9 | 7.8 | 0.00 | 0.00 | 0.00 | 74 | 1010.9 |
| 20260506133214 | 67 | 232 | 3.5 | 7.8 | 0.00 | 0.00 | 0.00 | 74 | 1011.0 |
| 20260506132712 | 66 | 231 | 6.1 | 11.3 | 0.00 | 0.00 | 0.00 | 74 | 1010.9 |
| 20260506132209 | 66 | 244 | 12.2 | 17.4 | 0.00 | 0.00 | 0.00 | 75 | 1011.0 |
| 20260506131707 | 65 | 225 | 8.7 | 14.8 | 0.00 | 0.00 | 0.00 | 76 | 1010.9 |
| 20260506131202 | 66 | 168 | 2.6 | 6.1 | 0.00 | 0.00 | 0.00 | 78 | 1010.8 |
| 20260506130659 | 65 | 158 | 5.2 | 11.3 | 0.00 | 0.00 | 0.00 | 78 | 1011.0 |
| 20260506130157 | 64 | 205 | 6.1 | 12.2 | 0.00 | 0.00 | 0.00 | 78 | 1011.0 |
| 20260506125655 | 64 | 140 | 5.2 | 13.9 | 0.00 | 0.00 | 0.00 | 79 | 1010.7 |
| 20260506125152 | 64 | 195 | 3.5 | 9.6 | 0.00 | 0.00 | 0.00 | 80 | 1010.9 |
| 20260506124650 | 63 | 191 | 4.3 | 8.7 | 0.00 | 0.00 | 0.00 | 81 | 1010.8 |
| 20260506124148 | 63 | 206 | 2.6 | 7.0 | 0.00 | 0.00 | 0.00 | 82 | 1010.7 |
| 20260506123645 | 62 | 134 | 4.3 | 7.8 | 0.00 | 0.00 | 0.00 | 82 | 1010.8 |
| 20260506123143 | 62 | 177 | 5.2 | 13.0 | 0.00 | 0.00 | 0.00 | 83 | 1010.9 |
| 20260506122640 | 61 | 226 | 5.2 | 13.0 | 0.00 | 0.00 | 0.00 | 83 | 1010.9 |
| 20260506122138 | 61 | 237 | 2.6 | 13.0 | 0.00 | 0.00 | 0.00 | 84 | 1010.9 |
| 20260506121635 | 61 | 247 | 1.7 | 10.4 | 0.00 | 0.00 | 0.00 | 84 | 1011.0 |
| 20260506121131 | 61 | 286 | 3.5 | 11.3 | 0.00 | 0.00 | 0.00 | 84 | 1011.1 |
| 20260506120629 | 61 | 256 | 7.8 | 16.5 | 0.00 | 0.00 | 0.00 | 83 | 1011.3 |
| 20260506120126 | 61 | 223 | 4.3 | 11.3 | 0.00 | 0.00 | 0.00 | 84 | 1011.3 |
| 20260506115625 | 60 | 227 | 9.6 | 17.4 | 0.00 | 0.00 | 0.00 | 84 | 1011.4 |
| 20260506115123 | 60 | 214 | 7.0 | 13.0 | 0.00 | 0.00 | 0.00 | 84 | 1011.3 |
| 20260506114620 | 60 | 225 | 4.3 | 13.0 | 0.00 | 0.00 | 0.00 | 84 | 1011.4 |
| 20260506114118 | 60 | 130 | 1.7 | 7.0 | 0.00 | 0.00 | 0.00 | 85 | 1011.2 |
| 20260506113616 | 60 | 162 | 0.0 | 8.7 | 0.00 | 0.00 | 0.00 | 85 | 1011.3 |
| 20260506113113 | 60 | 216 | 5.2 | 11.3 | 0.00 | 0.00 | 0.00 | 85 | 1011.4 |
| 20260506112609 | 60 | 182 | 2.6 | 9.6 | 0.00 | 0.00 | 0.00 | 85 | 1011.4 |
| 20260506112107 | 59 | 255 | 4.3 | 7.0 | 0.00 | 0.00 | 0.00 | 86 | 1011.4 |
| 20260506111604 | 59 | 215 | 2.6 | 10.4 | 0.00 | 0.00 | 0.00 | 86 | 1011.3 |
| 20260506111101 | 59 | 208 | 16.5 | 16.5 | 0.00 | 0.00 | 0.00 | 86 | 1011.3 |
| 20260506110559 | 59 | 180 | 0.9 | 9.6 | 0.00 | 0.00 | 0.00 | 86 | 1011.3 |
| 20260506110056 | 59 | 197 | 2.6 | 5.2 | 0.00 | 0.00 | 0.00 | 86 | 1011.6 |
| 20260506105552 | 59 | 185 | 2.6 | 11.3 | 0.00 | 0.00 | 0.00 | 86 | 1011.5 |
| 20260506105050 | 59 | 257 | 5.2 | 11.3 | 0.00 | 0.00 | 0.00 | 86 | 1011.3 |
| 20260506104548 | 59 | 187 | 3.5 | 14.8 | 0.00 | 0.00 | 0.00 | 86 | 1011.4 |
| 20260506104045 | 59 | 230 | 3.5 | 5.2 | 0.00 | 0.00 | 0.00 | 86 | 1011.5 |
| 20260506103542 | 59 | 197 | 3.5 | 9.6 | 0.00 | 0.00 | 0.00 | 86 | 1011.2 |
| 20260506103038 | 59 | 147 | 1.7 | 10.4 | 0.00 | 0.00 | 0.00 | 86 | 1011.2 |
| 20260506102537 | 59 | 209 | 3.5 | 10.4 | 0.00 | 0.00 | 0.00 | 86 | 1011.3 |
| 20260506102034 | 59 | 208 | 5.2 | 5.2 | 0.00 | 0.00 | 0.00 | 86 | 1011.3 |
| 20260506101531 | 59 | 228 | 3.5 | 14.8 | 0.00 | 0.00 | 0.00 | 86 | 1011.0 |
| 20260506101028 | 59 | 220 | 5.2 | 7.0 | 0.00 | 0.00 | 0.00 | 86 | 1011.0 |
| 20260506100526 | 59 | 227 | 5.2 | 11.3 | 0.00 | 0.00 | 0.00 | 86 | 1011.1 |
| 20260506100024 | 59 | 139 | 1.7 | 9.6 | 0.00 | 0.00 | 0.00 | 86 | 1011.1 |
| 20260506095523 | 59 | 219 | 2.6 | 7.0 | 0.00 | 0.00 | 0.00 | 87 | 1011.0 |
| 20260506095018 | 59 | 247 | 2.6 | 7.8 | 0.00 | 0.00 | 0.00 | 87 | 1011.2 |
| 20260506094516 | 59 | 201 | 3.5 | 7.8 | 0.00 | 0.00 | 0.00 | 87 | 1011.1 |
| 20260506094014 | 59 | 221 | 3.5 | 7.8 | 0.00 | 0.00 | 0.00 | 87 | 1011.1 |
| 20260506093512 | 59 | 236 | 4.3 | 17.4 | 0.00 | 0.00 | 0.00 | 86 | 1010.9 |
| 20260506093009 | 59 | 220 | 2.6 | 16.5 | 0.00 | 0.00 | 0.00 | 86 | 1011.0 |
| 20260506092507 | 59 | 199 | 2.6 | 9.6 | 0.00 | 0.00 | 0.00 | 86 | 1011.1 |
| 20260506092003 | 59 | 180 | 2.6 | 7.0 | 0.00 | 0.00 | 0.00 | 86 | 1011.2 |
| 20260506091502 | 59 | 223 | 6.1 | 7.8 | 0.00 | 0.00 | 0.00 | 86 | 1011.2 |
| 20260506090958 | 59 | 12 | 2.6 | 10.4 | 0.00 | 0.00 | 0.00 | 86 | 1011.2 |
| 20260506090456 | 59 | 211 | 4.3 | 13.0 | 0.00 | 0.00 | 0.00 | 86 | 1011.2 |
| 20260506085952 | 59 | 270 | 3.5 | 9.6 | 0.00 | 0.00 | 0.00 | 86 | 1011.4 |
| 20260506085449 | 59 | 238 | 9.6 | 13.0 | 0.00 | 0.00 | 0.00 | 86 | 1011.2 |
| 20260506084946 | 59 | 214 | 3.5 | 13.9 | 0.00 | 0.00 | 0.00 | 86 | 1011.4 |
| 20260506084443 | 59 | 237 | 6.1 | 9.6 | 0.00 | 0.00 | 0.00 | 86 | 1011.2 |
| 20260506083939 | 59 | 226 | 3.5 | 12.2 | 0.00 | 0.00 | 0.00 | 86 | 1011.2 |
| 20260506083436 | 59 | 211 | 2.6 | 7.0 | 0.00 | 0.00 | 0.00 | 86 | 1011.3 |
| 20260506082933 | 59 | 229 | 1.7 | 7.8 | 0.00 | 0.00 | 0.00 | 86 | 1011.2 |
| 20260506082430 | 60 | 233 | 6.1 | 12.2 | 0.00 | 0.00 | 0.00 | 86 | 1011.2 |
| 20260506081926 | 60 | 176 | 1.7 | 17.4 | 0.00 | 0.00 | 0.00 | 85 | 1011.1 |